map of SZA home
Great Circle Mapper logo
SZA - Airport
Location
City:  Soyo, Angola
ICAO / IATA:FNSO / SZA

Details
Type:Airport (Aerodrome, Airfield)
Latitude:608'28"S (-6.141085)
Longitude:1222'18"E (12.371764)
Datum:WGS 1984
Elevation:15 ft (5 m)
Variation:3.10W (WMM2015 magnetic declination)
0.16 annual change
Runways:1
Longest:6857 × 174 ft (2090 × 53 m), paved

Time
Time Zone:UTC+1
Local Time:

Weather
METAR:FNSO 111500Z 25005KT 9999 FEW012 FEW015CB SCT100 ///// Q1009
TAF:FNSO 111100Z 1112/1124 28010KT 9999 FEW020 FEW025TCU SCT030 PROB30
TEMPO 1114/1118 19010KT 4000 +TSRA SCT013 FEW020CB OVC025
BECMG 1118/1120 14010KT FEW015 BKN025

Related Locations
Nearby:
Farthest:PLPA: 12067 mi / 19421 km
Palmyra Island Atoll [Palmyra Airport (Cooper)], UM

Find:

   beyond  
but within

Other Information
Maps:
NOTAMs:
Links:
Sources:

  
flag of Angola   

Sectional Chart

Flight Planning
at skyvector.com

Satellite Image

Google Maps Satellite view

 

Copyright © 2004-2016 Karl L. Swartz. All rights reserved.
The Great Circle Mapper name and logo are trademarks of the Great Circle Mapper.
All other trademarks mentioned herein belong to their respective owners.
Please see credits for attibutions and further copyright information.

  Follow gcmap on Facebook Follow gcmap on Twitter Follow gcmap on Google+ GCmap on LinkedIn

hCard Microformat

Geo Microformat